Location: Unspecified
(0.0000°N, 0.0000°E)
Time: 23:14:51
(UTC+00:00)

X-37B - Pass Details

Date: 24 January 2022
Orbit: 334 x 337 km, 45.0° (Epoch: 11 January)

Event Time Altitude Azimuth Distance (km) Brightness Sun altitude
Exits shadow 05:05:53 31° 237° (WSW) 610 1.2 -15.6°
Maximum altitude 05:06:04 32° 228° (SW) 604 1.3 -15.5°
Drops below altitude 10° 05:08:40 10° 161° (SSE) 1,267 3.7 -14.9°
Sets 05:10:47 0° 151° (SSE) 2,106 5.1 -14.4°
